Saint Bonnet de Bellac- Haute Vienne - France
Donnes mto: mardi, 14/02/2012
Date Horaire Temp. E. Hum. E. P.atmo. Pluie Vent Direction Direction Ensoleilleme Solaire P. de rose Temp au vent Rafales
14/02/2012 00:00 0,9 C 93 % 1020,8 hPa 0,0 mm 1,4 km/h (1 Bft) O-SO 247 0 min 0 W/m -0,1 C 0,9 C 4,0 km/h (1 Bft)
14/02/2012 00:10 0,9 C 93 % 1020,7 hPa 0,0 mm 0,0 km/h (0 Bft) O 270 0 min 0 W/m -0,1 C 0,9 C 0,0 km/h (0 Bft)
14/02/2012 00:20 0,9 C 93 % 1020,5 hPa 0,0 mm 0,4 km/h (0 Bft) O 270 0 min 0 W/m -0,1 C 0,9 C 4,0 km/h (1 Bft)
14/02/2012 00:30 0,9 C 93 % 1020,2 hPa 0,0 mm 0,7 km/h (0 Bft) SO 225 0 min 0 W/m -0,1 C 0,9 C 4,0 km/h (1 Bft)
14/02/2012 00:40 1,0 C 94 % 1020,2 hPa 0,0 mm 0,0 km/h (0 Bft) SO 225 0 min 0 W/m 0,1 C 1,0 C 0,0 km/h (0 Bft)
14/02/2012 00:50 1,1 C 94 % 1020,2 hPa 0,0 mm 0,0 km/h (0 Bft) O-SO 247 0 min 0 W/m 0,2 C 1,1 C 0,0 km/h (0 Bft)
14/02/2012 01:00 1,1 C 93 % 1020,3 hPa 0,0 mm 0,0 km/h (0 Bft) O-NO 292 0 min 0 W/m 0,1 C 1,1 C 0,0 km/h (0 Bft)
14/02/2012 01:10 1,1 C 94 % 1020,1 hPa 0,0 mm 0,0 km/h (0 Bft) S-SO 202 0 min 0 W/m 0,2 C 1,1 C 0,0 km/h (0 Bft)
14/02/2012 01:20 0,9 C 94 % 1020,0 hPa 0,0 mm 0,0 km/h (0 Bft) O-SO 247 0 min 0 W/m 0,0 C 0,9 C 0,0 km/h (0 Bft)
14/02/2012 01:30 0,9 C 94 % 1019,7 hPa 0,0 mm 0,0 km/h (0 Bft) O-SO 247 0 min 0 W/m 0,0 C 0,9 C 0,0 km/h (0 Bft)
14/02/2012 01:40 0,9 C 94 % 1019,6 hPa 0,1 mm 0,0 km/h (0 Bft) O-SO 247 0 min 0 W/m 0,0 C 0,9 C 0,0 km/h (0 Bft)
14/02/2012 01:50 0,9 C 94 % 1019,3 hPa 0,0 mm 2,5 km/h (1 Bft) O 270 0 min 0 W/m 0,0 C 0,9 C 7,6 km/h (2 Bft)
14/02/2012 02:02 0,9 C 94 % 1019,3 hPa 0,0 mm 0,0 km/h (0 Bft) O-SO 247 0 min 0 W/m 0,0 C 0,9 C 0,0 km/h (0 Bft)
14/02/2012 02:10 0,8 C 94 % 1019,3 hPa 0,0 mm 2,5 km/h (1 Bft) S-SO 202 0 min 0 W/m -0,1 C 0,8 C 7,2 km/h (2 Bft)
14/02/2012 02:20 0,9 C 94 % 1019,2 hPa 0,0 mm 0,0 km/h (0 Bft) O-SO 247 0 min 0 W/m 0,0 C 0,9 C 0,0 km/h (0 Bft)
14/02/2012 02:30 0,9 C 94 % 1019,1 hPa 0,0 mm 0,4 km/h (0 Bft) SO 225 0 min 0 W/m 0,0 C 0,9 C 3,2 km/h (1 Bft)
14/02/2012 02:40 0,9 C 94 % 1019,1 hPa 0,1 mm 0,0 km/h (0 Bft) O-SO 247 0 min 0 W/m 0,0 C 0,9 C 0,0 km/h (0 Bft)
14/02/2012 02:50 0,9 C 94 % 1019,0 hPa 0,0 mm 0,0 km/h (0 Bft) O-SO 247 0 min 0 W/m 0,0 C 0,9 C 0,0 km/h (0 Bft)
14/02/2012 03:00 0,9 C 94 % 1018,8 hPa 0,1 mm 3,6 km/h (1 Bft) O 270 0 min 0 W/m 0,0 C 0,9 C 11,2 km/h (2 Bft)
14/02/2012 03:10 0,9 C 94 % 1018,8 hPa 0,0 mm 0,4 km/h (0 Bft) O-NO 292 0 min 0 W/m 0,0 C 0,9 C 2,9 km/h (1 Bft)
14/02/2012 03:20 0,8 C 94 % 1018,9 hPa 0,1 mm 0,0 km/h (0 Bft) O-NO 292 0 min 0 W/m -0,1 C 0,8 C 0,0 km/h (0 Bft)
14/02/2012 03:30 0,8 C 94 % 1018,8 hPa 0,0 mm 0,0 km/h (0 Bft) NO 315 0 min 0 W/m -0,1 C 0,8 C 0,0 km/h (0 Bft)
14/02/2012 03:40 0,8 C 94 % 1018,8 hPa 0,0 mm 0,0 km/h (0 Bft) NO 315 0 min 0 W/m -0,1 C 0,8 C 0,0 km/h (0 Bft)
14/02/2012 03:50 0,8 C 94 % 1018,7 hPa 0,0 mm 0,0 km/h (0 Bft) NO 315 0 min 0 W/m -0,1 C 0,8 C 0,0 km/h (0 Bft)
14/02/2012 04:00 0,6 C 94 % 1018,5 hPa 0,0 mm 0,0 km/h (0 Bft) NO 315 0 min 0 W/m -0,3 C 0,6 C 0,0 km/h (0 Bft)
14/02/2012 04:10 0,6 C 94 % 1018,5 hPa 0,0 mm 0,0 km/h (0 Bft) O 270 0 min 0 W/m -0,3 C 0,6 C 0,0 km/h (0 Bft)
14/02/2012 04:20 0,5 C 94 % 1018,3 hPa 0,0 mm 0,0 km/h (0 Bft) O-NO 292 0 min 0 W/m -0,4 C 0,5 C 2,9 km/h (1 Bft)
14/02/2012 04:30 0,5 C 94 % 1018,3 hPa 0,0 mm 0,0 km/h (0 Bft) O-NO 292 0 min 0 W/m -0,4 C 0,5 C 0,0 km/h (0 Bft)
14/02/2012 04:40 0,5 C 94 % 1018,2 hPa 0,1 mm 0,4 km/h (0 Bft) O 270 0 min 0 W/m -0,4 C 0,5 C 0,4 km/h (0 Bft)
14/02/2012 04:50 0,5 C 94 % 1018,1 hPa 0,0 mm 0,0 km/h (0 Bft) O 270 0 min 0 W/m -0,4 C 0,5 C 0,0 km/h (0 Bft)
14/02/2012 05:00 0,5 C 94 % 1018,0 hPa 0,0 mm 0,7 km/h (0 Bft) O 270 0 min 0 W/m -0,4 C 0,5 C 1,4 km/h (1 Bft)
14/02/2012 05:10 0,6 C 94 % 1018,1 hPa 0,0 mm 4,3 km/h (1 Bft) NO 315 0 min 0 W/m -0,3 C 0,6 C 4,3 km/h (1 Bft)
14/02/2012 05:20 0,6 C 94 % 1018,1 hPa 0,0 mm 1,8 km/h (1 Bft) N-NO 337 0 min 0 W/m -0,3 C 0,6 C 5,8 km/h (2 Bft)
14/02/2012 05:30 0,8 C 94 % 1018,2 hPa 0,1 mm 1,4 km/h (1 Bft) N-NE 22 0 min 0 W/m -0,1 C 0,8 C 4,0 km/h (1 Bft)
14/02/2012 05:40 0,9 C 94 % 1018,3 hPa 0,0 mm 1,4 km/h (1 Bft) NE 45 0 min 0 W/m 0,0 C 0,9 C 4,7 km/h (1 Bft)
14/02/2012 05:50 1,1 C 94 % 1018,4 hPa 0,0 mm 1,4 km/h (1 Bft) NE 45 0 min 0 W/m 0,2 C 1,1 C 4,3 km/h (1 Bft)
14/02/2012 06:00 1,2 C 94 % 1018,3 hPa 0,0 mm 1,4 km/h (1 Bft) NE 45 0 min 0 W/m 0,3 C 1,2 C 3,6 km/h (1 Bft)
14/02/2012 06:10 1,3 C 94 % 1017,9 hPa 0,0 mm 1,8 km/h (1 Bft) N-NE 22 0 min 0 W/m 0,4 C 1,3 C 1,8 km/h (1 Bft)
14/02/2012 06:20 1,3 C 94 % 1018,1 hPa 0,0 mm 0,4 km/h (0 Bft) N-NE 22 0 min 0 W/m 0,4 C 1,3 C 0,4 km/h (0 Bft)
14/02/2012 06:30 1,3 C 94 % 1018,1 hPa 0,0 mm 0,0 km/h (0 Bft) N-NE 22 0 min 0 W/m 0,4 C 1,3 C 0,0 km/h (0 Bft)
14/02/2012 06:40 1,3 C 94 % 1018,0 hPa 0,1 mm 0,0 km/h (0 Bft) NE 45 0 min 0 W/m 0,4 C 1,3 C 0,0 km/h (0 Bft)
14/02/2012 06:50 1,3 C 94 % 1018,2 hPa 0,0 mm 0,0 km/h (0 Bft) NE 45 0 min 0 W/m 0,4 C 1,3 C 0,0 km/h (0 Bft)
14/02/2012 07:00 1,3 C 94 % 1018,1 hPa 0,1 mm 0,4 km/h (0 Bft) NE 45 0 min 0 W/m 0,4 C 1,3 C 0,4 km/h (0 Bft)
14/02/2012 07:10 1,3 C 94 % 1018,3 hPa 0,0 mm 0,0 km/h (0 Bft) N-NO 337 0 min 0 W/m 0,4 C 1,3 C 0,0 km/h (0 Bft)
14/02/2012 07:20 1,3 C 94 % 1018,4 hPa 0,0 mm 1,8 km/h (1 Bft) N-NE 22 0 min 0 W/m 0,4 C 1,3 C 2,9 km/h (1 Bft)
14/02/2012 07:30 1,3 C 94 % 1018,3 hPa 0,1 mm 1,8 km/h (1 Bft) N 360 0 min 0 W/m 0,4 C 1,3 C 3,6 km/h (1 Bft)
14/02/2012 07:40 1,3 C 94 % 1018,5 hPa 0,0 mm 0,0 km/h (0 Bft) N-NE 22 0 min 0 W/m 0,4 C 1,3 C 0,0 km/h (0 Bft)
14/02/2012 07:50 1,3 C 94 % 1018,6 hPa 0,0 mm 4,3 km/h (1 Bft) N 360 0 min 0 W/m 0,4 C 1,3 C 6,5 km/h (2 Bft)
14/02/2012 08:00 1,4 C 94 % 1018,6 hPa 0,1 mm 4,0 km/h (1 Bft) N 360 0 min 0 W/m 0,5 C 1,4 C 4,3 km/h (1 Bft)
14/02/2012 08:10 1,4 C 94 % 1018,8 hPa 0,0 mm 2,2 km/h (1 Bft) N-NE 22 0 min 0 W/m 0,5 C 1,4 C 9,4 km/h (2 Bft)
14/02/2012 08:20 1,4 C 94 % 1018,9 hPa 0,0 mm 3,6 km/h (1 Bft) N-NE 22 2 min 0 W/m 0,5 C 1,4 C 6,1 km/h (2 Bft)
14/02/2012 08:30 1,4 C 94 % 1018,9 hPa 0,0 mm 3,6 km/h (1 Bft) N-NE 22 2 min 0 W/m 0,5 C 1,4 C 6,5 km/h (2 Bft)
14/02/2012 08:40 1,4 C 94 % 1018,9 hPa 0,0 mm 6,8 km/h (2 Bft) N-NE 22 2 min 0 W/m 0,5 C -0,7 C 10,4 km/h (2 Bft)
14/02/2012 08:50 1,6 C 94 % 1018,9 hPa 0,0 mm 3,6 km/h (1 Bft) N 360 2 min 0 W/m 0,7 C 1,6 C 4,3 km/h (1 Bft)
14/02/2012 09:00 1,6 C 94 % 1019,0 hPa 0,1 mm 2,5 km/h (1 Bft) NE 45 2 min 0 W/m 0,7 C 1,6 C 2,5 km/h (1 Bft)
14/02/2012 09:10 1,7 C 94 % 1019,0 hPa 0,0 mm 6,5 km/h (2 Bft) N-NE 22 2 min 0 W/m 0,8 C -0,3 C 7,6 km/h (2 Bft)
14/02/2012 09:20 1,7 C 94 % 1019,0 hPa 0,0 mm 3,2 km/h (1 Bft) NE 45 2 min 0 W/m 0,8 C 1,7 C 6,8 km/h (2 Bft)
14/02/2012 09:30 1,7 C 94 % 1019,1 hPa 0,0 mm 2,5 km/h (1 Bft) N-NO 337 2 min 0 W/m 0,8 C 1,7 C 7,2 km/h (2 Bft)
14/02/2012 09:40 1,8 C 94 % 1019,1 hPa 0,0 mm 1,4 km/h (1 Bft) N 360 2 min 0 W/m 0,9 C 1,8 C 10,4 km/h (2 Bft)
14/02/2012 09:50 1,8 C 94 % 1019,3 hPa 0,0 mm 3,2 km/h (1 Bft) N-NE 22 2 min 0 W/m 0,9 C 1,8 C 7,2 km/h (2 Bft)
14/02/2012 10:00 1,8 C 94 % 1019,3 hPa 0,0 mm 3,6 km/h (1 Bft) NE 45 2 min 0 W/m 0,9 C 1,8 C 14,0 km/h (3 Bft)
14/02/2012 10:10 1,8 C 94 % 1019,5 hPa 0,0 mm 0,0 km/h (0 Bft) NE 45 2 min 0 W/m 0,9 C 1,8 C 0,0 km/h (0 Bft)
14/02/2012 10:20 1,9 C 94 % 1019,5 hPa 0,0 mm 3,6 km/h (1 Bft) N 360 2 min 0 W/m 1,0 C 1,9 C 8,3 km/h (2 Bft)
14/02/2012 10:30 1,9 C 94 % 1019,5 hPa 0,0 mm 0,0 km/h (0 Bft) E-NE 67 2 min 0 W/m 1,0 C 1,9 C 1,4 km/h (1 Bft)
14/02/2012 10:40 2,1 C 94 % 1019,6 hPa 0,0 mm 2,5 km/h (1 Bft) N-NE 22 2 min 0 W/m 1,2 C 2,1 C 2,5 km/h (1 Bft)
14/02/2012 10:50 2,2 C 94 % 1019,9 hPa 0,0 mm 7,9 km/h (2 Bft) N 360 2 min 0 W/m 1,3 C -0,1 C 12,6 km/h (3 Bft)
14/02/2012 11:00 2,3 C 94 % 1020,0 hPa 0,0 mm 7,9 km/h (2 Bft) N 360 2 min 0 W/m 1,4 C -0,0 C 10,4 km/h (2 Bft)
14/02/2012 11:10 2,3 C 94 % 1020,2 hPa 0,0 mm 1,4 km/h (1 Bft) NE 45 2 min 0 W/m 1,4 C 2,3 C 4,3 km/h (1 Bft)
14/02/2012 11:20 2,4 C 94 % 1020,3 hPa 0,0 mm 9,7 km/h (2 Bft) N-NE 22 2 min 0 W/m 1,5 C -0,4 C 9,7 km/h (2 Bft)
14/02/2012 11:30 2,6 C 94 % 1020,3 hPa 0,0 mm 6,5 km/h (2 Bft) N-NE 22 2 min 0 W/m 1,7 C 0,8 C 9,0 km/h (2 Bft)
14/02/2012 11:40 2,8 C 94 % 1020,3 hPa 0,0 mm 4,0 km/h (1 Bft) N-NE 22 2 min 0 W/m 1,9 C 2,8 C 6,5 km/h (2 Bft)
14/02/2012 11:50 2,8 C 94 % 1020,4 hPa 0,0 mm 4,0 km/h (1 Bft) N-NO 337 2 min 0 W/m 1,9 C 2,8 C 12,6 km/h (3 Bft)
14/02/2012 12:00 2,8 C 94 % 1020,5 hPa 0,0 mm 5,4 km/h (2 Bft) N-NO 337 2 min 0 W/m 1,9 C 1,4 C 15,8 km/h (3 Bft)
14/02/2012 12:10 2,9 C 94 % 1020,7 hPa 0,0 mm 2,9 km/h (1 Bft) N-NE 22 2 min 0 W/m 2,0 C 2,9 C 7,9 km/h (2 Bft)
14/02/2012 12:20 2,8 C 94 % 1020,6 hPa 0,0 mm 9,4 km/h (2 Bft) N 360 2 min 0 W/m 1,9 C 0,2 C 17,6 km/h (3 Bft)
14/02/2012 12:30 2,8 C 94 % 1020,6 hPa 0,0 mm 5,8 km/h (2 Bft) N-NE 22 2 min 0 W/m 1,9 C 1,3 C 10,8 km/h (2 Bft)
14/02/2012 12:40 2,8 C 94 % 1020,8 hPa 0,0 mm 9,4 km/h (2 Bft) N 360 2 min 0 W/m 1,9 C 0,2 C 13,3 km/h (3 Bft)
14/02/2012 12:50 2,6 C 94 % 1020,8 hPa 0,0 mm 4,7 km/h (1 Bft) N 360 2 min 0 W/m 1,7 C 1,5 C 4,7 km/h (1 Bft)
14/02/2012 13:00 2,8 C 94 % 1020,9 hPa 0,0 mm 0,4 km/h (0 Bft) N-NE 22 2 min 0 W/m 1,9 C 2,8 C 0,4 km/h (0 Bft)
14/02/2012 13:10 2,9 C 94 % 1020,7 hPa 0,0 mm 9,4 km/h (2 Bft) N-NE 22 2 min 0 W/m 2,0 C 0,3 C 12,2 km/h (2 Bft)
14/02/2012 13:20 2,9 C 93 % 1020,8 hPa 0,0 mm 6,5 km/h (2 Bft) N-NE 22 2 min 0 W/m 1,9 C 1,1 C 9,4 km/h (2 Bft)
14/02/2012 13:30 2,9 C 93 % 1020,8 hPa 0,0 mm 1,8 km/h (1 Bft) N-NE 22 2 min 0 W/m 1,9 C 2,9 C 6,5 km/h (2 Bft)
14/02/2012 13:40 3,1 C 93 % 1020,9 hPa 0,0 mm 1,4 km/h (1 Bft) N 360 2 min 0 W/m 2,1 C 3,1 C 4,0 km/h (1 Bft)
14/02/2012 13:50 3,1 C 93 % 1020,7 hPa 0,0 mm 4,3 km/h (1 Bft) N 360 2 min 0 W/m 2,1 C 3,1 C 6,8 km/h (2 Bft)
14/02/2012 14:00 3,1 C 93 % 1020,8 hPa 0,0 mm 6,5 km/h (2 Bft) N 360 2 min 0 W/m 2,1 C 1,4 C 11,5 km/h (2 Bft)
14/02/2012 14:10 3,2 C 92 % 1020,9 hPa 0,0 mm 8,3 km/h (2 Bft) N 360 2 min 0 W/m 2,0 C 0,9 C 11,5 km/h (2 Bft)
14/02/2012 14:20 3,2 C 92 % 1020,9 hPa 0,0 mm 0,4 km/h (0 Bft) N 360 2 min 0 W/m 2,0 C 3,2 C 0,4 km/h (0 Bft)
14/02/2012 14:30 3,3 C 92 % 1020,9 hPa 0,0 mm 0,7 km/h (0 Bft) N-NO 337 2 min 0 W/m 2,1 C 3,3 C 4,0 km/h (1 Bft)
14/02/2012 14:40 3,3 C 91 % 1021,1 hPa 0,0 mm 3,6 km/h (1 Bft) N-NO 337 2 min 0 W/m 2,0 C 3,3 C 9,0 km/h (2 Bft)
14/02/2012 14:50 3,4 C 91 % 1021,1 hPa 0,0 mm 1,8 km/h (1 Bft) N-NO 337 2 min 0 W/m 2,1 C 3,4 C 4,3 km/h (1 Bft)
14/02/2012 15:00 3,3 C 91 % 1021,2 hPa 0,0 mm 3,6 km/h (1 Bft) N 360 2 min 0 W/m 2,0 C 3,3 C 3,6 km/h (1 Bft)
14/02/2012 15:10 3,3 C 91 % 1021,2 hPa 0,0 mm 0,4 km/h (0 Bft) N 360 2 min 0 W/m 2,0 C 3,3 C 3,6 km/h (1 Bft)
14/02/2012 15:20 3,2 C 90 % 1021,2 hPa 0,0 mm 0,4 km/h (0 Bft) N-NO 337 2 min 0 W/m 1,7 C 3,2 C 0,4 km/h (0 Bft)
14/02/2012 15:30 3,1 C 90 % 1021,3 hPa 0,0 mm 0,4 km/h (0 Bft) N-NO 337 2 min 0 W/m 1,6 C 3,1 C 3,2 km/h (1 Bft)
14/02/2012 15:40 3,1 C 90 % 1021,5 hPa 0,0 mm 0,0 km/h (0 Bft) N 360 2 min 0 W/m 1,6 C 3,1 C 0,0 km/h (0 Bft)
14/02/2012 15:50 3,0 C 90 % 1021,5 hPa 0,0 mm 0,7 km/h (0 Bft) N-NO 337 2 min 0 W/m 1,5 C 3,0 C 0,7 km/h (0 Bft)
14/02/2012 16:00 2,9 C 90 % 1021,6 hPa 0,0 mm 0,4 km/h (0 Bft) N-NE 22 2 min 0 W/m 1,4 C 2,9 C 2,9 km/h (1 Bft)
14/02/2012 16:10 2,9 C 90 % 1021,7 hPa 0,0 mm 1,8 km/h (1 Bft) N-NO 337 2 min 0 W/m 1,4 C 2,9 C 1,8 km/h (1 Bft)
14/02/2012 16:20 2,8 C 90 % 1021,7 hPa 0,0 mm 4,7 km/h (1 Bft) NO 315 2 min 0 W/m 1,3 C 1,7 C 4,7 km/h (1 Bft)
14/02/2012 16:30 2,8 C 90 % 1021,7 hPa 0,0 mm 6,8 km/h (2 Bft) NO 315 2 min 0 W/m 1,3 C 0,9 C 6,8 km/h (2 Bft)
14/02/2012 16:40 2,8 C 90 % 1021,8 hPa 0,1 mm 5,0 km/h (1 Bft) E-NE 67 2 min 0 W/m 1,3 C 1,6 C 11,2 km/h (2 Bft)
14/02/2012 16:50 2,8 C 90 % 1021,7 hPa 0,0 mm 0,0 km/h (0 Bft) NO 315 2 min 0 W/m 1,3 C 2,8 C 3,2 km/h (1 Bft)
14/02/2012 17:00 2,6 C 91 % 1021,7 hPa 0,1 mm 0,7 km/h (0 Bft) NO 315 2 min 0 W/m 1,3 C 2,6 C 0,7 km/h (0 Bft)
14/02/2012 17:10 2,6 C 91 % 1021,8 hPa 0,0 mm 3,2 km/h (1 Bft) N-NO 337 2 min 0 W/m 1,3 C 2,6 C 4,3 km/h (1 Bft)
14/02/2012 17:20 2,6 C 91 % 1021,9 hPa 0,0 mm 1,8 km/h (1 Bft) NO 315 2 min 0 W/m 1,3 C 2,6 C 4,3 km/h (1 Bft)
14/02/2012 17:30 2,5 C 91 % 1021,9 hPa 0,0 mm 3,6 km/h (1 Bft) NO 315 2 min 0 W/m 1,2 C 2,5 C 7,6 km/h (2 Bft)
14/02/2012 17:40 2,5 C 91 % 1021,9 hPa 0,0 mm 4,7 km/h (1 Bft) N-NO 337 2 min 0 W/m 1,2 C 1,4 C 7,9 km/h (2 Bft)
14/02/2012 17:50 2,5 C 91 % 1022,1 hPa 0,0 mm 7,2 km/h (2 Bft) NO 315 2 min 0 W/m 1,2 C 0,4 C 9,7 km/h (2 Bft)
14/02/2012 18:00 2,4 C 91 % 1022,1 hPa 0,1 mm 0,7 km/h (0 Bft) N 360 2 min 0 W/m 1,1 C 2,4 C 4,3 km/h (1 Bft)
14/02/2012 18:10 2,4 C 91 % 1022,3 hPa 0,0 mm 4,0 km/h (1 Bft) N-NO 337 0 min 0 W/m 1,1 C 2,4 C 8,3 km/h (2 Bft)
14/02/2012 18:20 2,3 C 91 % 1022,5 hPa 0,0 mm 2,9 km/h (1 Bft) NO 315 0 min 0 W/m 1,0 C 2,3 C 6,1 km/h (2 Bft)
14/02/2012 18:30 2,3 C 92 % 1022,7 hPa 0,0 mm 4,3 km/h (1 Bft) N-NO 337 0 min 0 W/m 1,1 C 2,3 C 6,5 km/h (2 Bft)
14/02/2012 18:40 2,2 C 92 % 1022,9 hPa 0,0 mm 0,7 km/h (0 Bft) N-NO 337 0 min 0 W/m 1,0 C 2,2 C 3,6 km/h (1 Bft)
14/02/2012 18:50 2,1 C 92 % 1022,9 hPa 0,0 mm 1,8 km/h (1 Bft) N-NO 337 0 min 0 W/m 0,9 C 2,1 C 4,3 km/h (1 Bft)
14/02/2012 19:00 2,1 C 92 % 1023,1 hPa 0,0 mm 2,2 km/h (1 Bft) NO 315 0 min 0 W/m 0,9 C 2,1 C 2,9 km/h (1 Bft)
14/02/2012 19:10 2,1 C 92 % 1023,2 hPa 0,0 mm 3,2 km/h (1 Bft) NO 315 0 min 0 W/m 0,9 C 2,1 C 7,2 km/h (2 Bft)
14/02/2012 19:20 2,1 C 92 % 1023,2 hPa 0,0 mm 3,2 km/h (1 Bft) N-NO 337 0 min 0 W/m 0,9 C 2,1 C 4,3 km/h (1 Bft)
14/02/2012 19:30 2,0 C 92 % 1023,2 hPa 0,0 mm 4,0 km/h (1 Bft) N-NO 337 0 min 0 W/m 0,8 C 2,0 C 9,4 km/h (2 Bft)
14/02/2012 19:40 2,0 C 92 % 1023,2 hPa 0,0 mm 4,3 km/h (1 Bft) NO 315 0 min 0 W/m 0,8 C 2,0 C 8,6 km/h (2 Bft)
14/02/2012 19:50 1,9 C 92 % 1023,2 hPa 0,0 mm 3,2 km/h (1 Bft) N-NO 337 0 min 0 W/m 0,7 C 1,9 C 4,3 km/h (1 Bft)
14/02/2012 20:00 1,9 C 92 % 1023,2 hPa 0,0 mm 2,5 km/h (1 Bft) NO 315 0 min 0 W/m 0,7 C 1,9 C 3,2 km/h (1 Bft)
14/02/2012 20:10 1,9 C 92 % 1023,2 hPa 0,0 mm 0,4 km/h (0 Bft) N-NO 337 0 min 0 W/m 0,7 C 1,9 C 3,2 km/h (1 Bft)
14/02/2012 20:20 1,8 C 92 % 1023,2 hPa 0,0 mm 4,0 km/h (1 Bft) NO 315 0 min 0 W/m 0,6 C 1,8 C 7,9 km/h (2 Bft)
14/02/2012 20:30 1,8 C 92 % 1023,5 hPa 0,0 mm 2,2 km/h (1 Bft) N-NO 337 0 min 0 W/m 0,6 C 1,8 C 2,2 km/h (1 Bft)
14/02/2012 20:40 1,8 C 92 % 1023,7 hPa 0,0 mm 0,4 km/h (0 Bft) N-NO 337 0 min 0 W/m 0,6 C 1,8 C 3,6 km/h (1 Bft)
14/02/2012 20:50 1,7 C 92 % 1023,7 hPa 0,0 mm 0,0 km/h (0 Bft) N-NO 337 0 min 0 W/m 0,5 C 1,7 C 0,0 km/h (0 Bft)
14/02/2012 21:00 1,6 C 92 % 1023,8 hPa 0,0 mm 3,6 km/h (1 Bft) N-NO 337 0 min 0 W/m 0,4 C 1,6 C 8,6 km/h (2 Bft)
14/02/2012 21:10 1,6 C 92 % 1023,8 hPa 0,0 mm 1,1 km/h (1 Bft) N-NO 337 0 min 0 W/m 0,4 C 1,6 C 3,2 km/h (1 Bft)
14/02/2012 21:20 1,5 C 92 % 1023,7 hPa 0,0 mm 1,4 km/h (1 Bft) N-NO 337 0 min 0 W/m 0,3 C 1,5 C 4,0 km/h (1 Bft)
14/02/2012 21:30 1,5 C 92 % 1023,8 hPa 0,0 mm 4,0 km/h (1 Bft) NO 315 0 min 0 W/m 0,3 C 1,5 C 8,3 km/h (2 Bft)
14/02/2012 21:40 1,5 C 92 % 1023,8 hPa 0,0 mm 1,8 km/h (1 Bft) NO 315 0 min 0 W/m 0,3 C 1,5 C 3,6 km/h (1 Bft)
14/02/2012 21:50 1,5 C 92 % 1023,8 hPa 0,0 mm 0,7 km/h (0 Bft) N-NO 337 0 min 0 W/m 0,3 C 1,5 C 3,6 km/h (1 Bft)
14/02/2012 22:00 1,4 C 92 % 1023,8 hPa 0,0 mm 1,4 km/h (1 Bft) N-NO 337 0 min 0 W/m 0,2 C 1,4 C 6,5 km/h (2 Bft)
14/02/2012 22:10 1,4 C 93 % 1023,7 hPa 0,0 mm 3,6 km/h (1 Bft) NO 315 0 min 0 W/m 0,4 C 1,4 C 6,1 km/h (2 Bft)
14/02/2012 22:20 1,4 C 93 % 1023,7 hPa 0,0 mm 8,3 km/h (2 Bft) N-NO 337 0 min 0 W/m 0,4 C -1,2 C 10,4 km/h (2 Bft)
14/02/2012 22:30 1,5 C 93 % 1023,7 hPa 0,0 mm 3,6 km/h (1 Bft) N-NO 337 0 min 0 W/m 0,5 C 1,5 C 4,3 km/h (1 Bft)
14/02/2012 22:40 1,5 C 93 % 1023,7 hPa 0,0 mm 1,8 km/h (1 Bft) N-NO 337 0 min 0 W/m 0,5 C 1,5 C 6,1 km/h (2 Bft)
14/02/2012 22:50 1,5 C 93 % 1023,8 hPa 0,0 mm 4,7 km/h (1 Bft) NO 315 0 min 0 W/m 0,5 C 0,2 C 7,9 km/h (2 Bft)
14/02/2012 23:00 1,5 C 93 % 1023,8 hPa 0,0 mm 1,4 km/h (1 Bft) N-NO 337 0 min 0 W/m 0,5 C 1,5 C 4,3 km/h (1 Bft)
14/02/2012 23:10 1,4 C 93 % 1023,8 hPa 0,0 mm 2,2 km/h (1 Bft) N-NO 337 0 min 0 W/m 0,4 C 1,4 C 4,3 km/h (1 Bft)
14/02/2012 23:20 1,5 C 93 % 1023,6 hPa 0,0 mm 3,6 km/h (1 Bft) N-NO 337 0 min 0 W/m 0,5 C 1,5 C 6,5 km/h (2 Bft)
14/02/2012 23:30 1,5 C 93 % 1023,6 hPa 0,0 mm 0,0 km/h (0 Bft) N-NO 337 0 min 0 W/m 0,5 C 1,5 C 0,0 km/h (0 Bft)
14/02/2012 23:40 1,4 C 93 % 1023,5 hPa 0,0 mm 0,4 km/h (0 Bft) N-NO 337 0 min 0 W/m 0,4 C 1,4 C 0,4 km/h (0 Bft)
14/02/2012 23:50 1,4 C 93 % 1023,6 hPa 0,0 mm 2,5 km/h (1 Bft) O-NO 292 0 min 0 W/m 0,4 C 1,4 C 7,9 km/h (2 Bft)
_ Min-Heure 05:00 16:50 06:10 - 23:30 - - - - 05:00 22:20 23:30
Minimum _ 0,5 C 90 % 1017,9 hPa - 0,0 km/h (0 Bft) - - - - -0,4 C -1,2 C 0,0 km/h (0 Bft)
_ Max-Heure 14:50 13:10 23:10 18:00 11:20 - - 18:00 23:50 14:30 14:50 12:20
Maximum _ 3,4 C 94 % 1023,8 hPa 0,1 mm 9,7 km/h
N-NE (2 Bft)
- - 2 min 0 W/m 2,1 C 3,4 C 17,6 km/h
N (3 Bft)
Moyenne _ 1,8 C 93 % 1020,7 hPa #1,5 mm 2,4 km/h (1 Bft) N-NO - #1:58 h 0 W/m 0,8 C 1,5 C 4,7 km/h (1 Bft)
Saint Bonnet de Bellac- Haute Vienne - France